[[{"header":{"parameterUnit":"m.s-1","parameterCategory":1,"la1":30.2991,"la2":30.254,"lo1":-89.0895,"lo2":-89.0444,"dy":0.0017,"dx":0.0017,"nx":28,"ny":28,"refTime":"2025-11-24T03:00:00:Z","depth":0,"parameterNumber":2,"parameterNumberName":"U-component_of_WINDS"},"data":[0,0,0,0,0,0,0,0,0,0,0,0,0,0,0,0,0,0,0,0,0,0,0,0,0,0,0,0,0,0,0,0,0,0,0,0,0,0,0,0,0,0,0,0,0,0,0,0,0,0,0,0,0,0,0,0,0,0,-0.6884,-0.6885,0,-0.6968,-0.6969,-0.697,-0.7012,-0.7012,-0.7012,-0.7012,-0.71,-0.7103,-0.7105,0,0,0,0,0,0,0,0,0,0,0,0,0,-0.6765,-0.6767,-0.6884,-0.6885,-0.6886,-0.6967,-0.6969,-0.697,-0.7012,-0.7012,-0.7012,-0.7012,-0.71,-0.7102,-0.7105,0,0,0,0,0,0,0,0,0,0,0,0,0,-0.6829,-0.6767,-0.6884,-0.6917,-0.6921,-0.6967,-0.6969,-0.697,-0.7012,-0.7012,-0.7012,-0.7012,-0.7099,-0.7102,-0.7106,-0.7126,0,0,-0.7116,-0.7118,0,0,0,0,0,0,0,0,-0.6825,-0.6833,-0.6911,-0.6915,-0.6919,-0.6979,-0.6959,-0.7023,-0.7012,-0.6977,-0.7012,-0.7012,-0.706,-0.7067,-0.7083,-0.713,-0.7134,-0.7117,-0.7119,-0.712,-0.7121,0,0,0,0,0,0,0,-0.6821,-0.683,-0.6917,-0.6912,-0.6917,-0.6929,-0.6938,-0.6971,-0.7018,-0.6981,-0.6984,-0.6993,-0.7063,-0.7079,-0.7085,-0.7136,-0.7116,-0.712,-0.7122,-0.7123,-0.7207,-0.7207,0,0,0,0,0,0,-0.6811,-0.6826,-0.6914,-0.692,-0.6871,-0.6931,-0.6941,-0.696,-0.7017,-0.7026,-0.6993,-0.6995,-0.7073,-0.7081,-0.7088,-0.7117,-0.712,-0.7123,-0.7125,-0.7207,-0.7207,-0.7207,0,0,0,0,0,0,-0.6808,-0.6818,-0.6911,-0.6874,-0.6887,-0.6933,-0.6954,-0.6962,-0.6978,-0.7027,-0.7036,-0.7001,-0.7074,-0.7083,-0.7117,-0.7121,-0.7125,-0.7128,-0.7207,-0.7207,-0.7207,-0.7175,0,0,0,0,0,0,-0.6804,-0.6817,-0.6824,-0.6874,-0.6888,-0.6937,-0.6954,-0.6963,-0.6984,-0.6987,-0.7037,-0.7045,-0.7074,-0.7111,-0.712,-0.7126,-0.7131,-0.7206,-0.7207,-0.7207,-0.7176,-0.7174,-0.7172,0,0,0,0,0,-0.68,-0.6812,-0.6824,-0.6835,-0.6898,-0.6937,-0.6945,-0.6978,-0.6984,-0.6992,-0.7024,-0.7044,-0.7119,-0.7114,-0.7125,-0.7132,-0.7206,-0.7207,-0.7207,-0.7176,-0.7174,-0.7172,0,0,0,0,0,0,-0.6762,-0.6819,-0.6833,-0.6861,-0.6894,-0.6944,-0.6955,-0.6974,-0.7007,-0.7008,-0.7048,-0.7059,-0.7089,-0.7114,-0.7108,-0.7156,-0.7165,-0.7167,-0.7138,-0.7137,-0.7135,-0.7128,-0.7134,0,0,0,0,0,-0.6757,-0.6782,-0.6831,-0.6851,-0.6867,-0.6908,-0.6926,-0.6949,-0.6985,-0.6999,-0.7033,-0.7067,-0.71,-0.7119,-0.7151,-0.718,-0.7192,-0.719,-0.7188,-0.7187,-0.7188,-0.7207,-0.7207,-0.7208,-0.7208,-0.7208,0,0,-0.6746,-0.6781,-0.6794,-0.6845,-0.6873,-0.6899,-0.692,-0.6947,-0.6968,-0.7003,-0.7037,-0.7063,-0.7105,-0.7136,-0.7152,-0.7158,-0.7191,-0.7187,-0.7185,-0.7188,-0.7207,-0.7207,-0.7207,-0.7208,-0.7208,-0.7208,0,0,-0.6741,-0.6769,-0.679,-0.6818,-0.6859,-0.6887,-0.6892,-0.694,-0.6959,-0.6993,-0.7021,-0.7047,-0.71,-0.7129,-0.7151,-0.7159,-0.7179,-0.7169,-0.716,-0.7177,-0.7177,-0.7177,-0.7181,-0.7182,-0.717,-0.717,-0.717,0,-0.6723,-0.6764,-0.6798,-0.6824,-0.6846,-0.6879,-0.6901,-0.6927,-0.6978,-0.6993,-0.6998,-0.7068,-0.7098,-0.7137,-0.7139,-0.7156,-0.7164,-0.7163,-0.7174,-0.7175,-0.7176,-0.718,-0.7181,-0.7169,-0.7169,-0.7169,-0.7169,0,-0.674,-0.6768,-0.678,-0.6827,-0.6851,-0.6874,-0.6914,-0.6934,-0.6955,-0.6982,-0.7018,-0.7056,-0.7097,-0.7108,-0.7129,-0.7151,-0.7154,-0.7166,-0.7176,-0.7173,-0.7178,-0.718,-0.7166,-0.7167,-0.7167,-0.7168,0,0,-0.6712,-0.6779,-0.6783,-0.6806,-0.6855,-0.6878,-0.6905,-0.6944,-0.6961,-0.6995,-0.7019,-0.7065,-0.7077,-0.7102,-0.7127,-0.7142,-0.7148,-0.7154,-0.7156,-0.7152,-0.7176,-0.7166,-0.7167,-0.7162,-0.7162,-0.7163,-0.7173,0,-0.6714,-0.6761,-0.6794,-0.6829,-0.6856,-0.689,-0.6913,-0.6947,-0.6974,-0.7002,-0.7033,-0.7064,-0.7078,-0.7094,-0.711,-0.7143,-0.7153,-0.7143,-0.7186,-0.7187,-0.7174,-0.717,-0.7159,-0.7167,-0.7175,-0.7175,-0.7176,0,-0.6723,-0.6755,-0.6793,-0.6841,-0.6854,-0.6874,-0.6913,-0.6939,-0.698,-0.6998,-0.7027,-0.7052,-0.7084,-0.7091,-0.7136,-0.7128,-0.7148,-0.7167,-0.7168,-0.7173,-0.7181,-0.7175,-0.717,-0.7171,-0.7179,-0.7178,-0.7178,0,-0.6699,-0.6753,-0.6783,-0.6801,-0.6858,-0.6871,-0.6896,-0.6936,-0.6958,-0.6993,-0.7008,-0.7047,-0.7068,-0.7099,-0.7135,-0.7137,-0.7176,-0.7187,-0.7194,-0.7193,-0.72,-0.7199,-0.7198,-0.7213,-0.7213,-0.7213,-0.7212,0,-0.6698,-0.672,-0.6773,-0.6791,-0.6817,-0.6856,-0.6881,-0.6909,-0.6944,-0.697,-0.7002,-0.7025,-0.7072,-0.7102,-0.713,-0.7164,-0.7173,-0.719,-0.7197,-0.7187,-0.7185,-0.72,-0.7201,-0.7213,-0.7213,-0.7213,-0.7213,0,-0.6675,-0.6712,-0.6747,-0.6798,-0.6811,-0.6828,-0.6873,-0.6893,-0.6922,-0.6955,-0.6964,-0.7011,-0.7048,-0.7087,-0.7138,-0.7157,-0.7189,-0.72,-0.7175,-0.718,-0.7185,-0.7184,-0.7194,-0.7198,-0.7209,-0.7208,-0.7208,0,-0.6672,-0.669,-0.6743,-0.6762,-0.6785,-0.6815,-0.6838,-0.6878,-0.69,-0.6948,-0.6963,-0.7002,-0.7036,-0.7094,-0.7133,-0.7172,-0.7184,-0.7185,-0.719,-0.718,-0.7185,-0.7183,-0.7186,-0.7183,-0.7183,-0.7182,-0.7182,0,-0.6663,-0.668,-0.6711,-0.6749,-0.6775,-0.6807,-0.6841,-0.6855,-0.6901,-0.6926,-0.6963,-0.6989,-0.7041,-0.708,-0.7125,-0.7152,-0.7176,-0.718,-0.7184,-0.7174,-0.7159,-0.7168,-0.7171,-0.718,-0.718,-0.718,-0.718,-0.718,-0.665,-0.6668,-0.6708,-0.6742,-0.6772,-0.6802,-0.6824,-0.6856,-0.6888,-0.6933,-0.6955,-0.6993,-0.7035,-0.7097,-0.7124,-0.7155,-0.7162,-0.7167,-0.7169,-0.717,-0.7167,-0.7154,-0.7164,-0.7164,-0.7164,-0.7164,-0.7164,0,-0.6643,-0.6671,-0.6702,-0.6747,-0.6775,-0.6794,-0.6832,-0.6854,-0.6887,-0.6923,-0.6956,-0.7,-0.7039,-0.7082,-0.7124,-0.7141,-0.7153,-0.7151,-0.715,-0.7156,-0.7158,-0.7151,-0.714,-0.714,-0.714,-0.714,-0.714,-0.714,-0.6642,-0.6673,-0.6696,-0.6743,-0.6771,-0.6808,-0.6828,-0.6858,-0.6887,-0.6935,-0.6967,-0.6995,-0.7035,-0.708,-0.7117,-0.7129,-0.7143,-0.7138,-0.7153,-0.7154,-0.7156,-0.7157,-0.7151,-0.714,-0.714,-0.7148,-0.7148,-0.7148]},{"header":{"parameterUnit":"m.s-1","parameterCategory":1,"la1":30.2991,"la2":30.254,"lo1":-89.0895,"lo2":-89.0444,"dy":0.0017,"dx":0.0017,"nx":28,"ny":28,"refTime":"2025-11-24T03:00:00:Z","depth":0,"parameterNumber":3,"parameterNumberName":"V-component_of_WINDS"},"data":[0,0,0,0,0,0,0,0,0,0,0,0,0,0,0,0,0,0,0,0,0,0,0,0,0,0,0,0,0,0,0,0,0,0,0,0,0,0,0,0,0,0,0,0,0,0,0,0,0,0,0,0,0,0,0,0,0,0,3.738,3.738,0,3.7359,3.7359,3.7359,3.7309,3.7308,3.7307,3.7306,3.7286,3.7287,3.7287,0,0,0,0,0,0,0,0,0,0,0,0,0,3.7379,3.738,3.738,3.738,3.738,3.7359,3.7359,3.7359,3.7309,3.7308,3.7306,3.7305,3.7286,3.7287,3.7287,0,0,0,0,0,0,0,0,0,0,0,0,0,3.7371,3.738,3.7381,3.7353,3.735,3.7359,3.7359,3.7359,3.7309,3.7308,3.7306,3.7305,3.7286,3.7286,3.7287,3.7323,0,0,3.7289,3.7289,0,0,0,0,0,0,0,0,3.7372,3.7371,3.7357,3.7355,3.7351,3.7335,3.7351,3.7347,3.731,3.7325,3.7306,3.7304,3.7304,3.7303,3.7302,3.7322,3.7321,3.7289,3.729,3.729,3.729,0,0,0,0,0,0,0,3.7372,3.7372,3.7372,3.7357,3.7353,3.7342,3.7339,3.735,3.7323,3.7323,3.732,3.7318,3.7302,3.7302,3.7302,3.7321,3.7289,3.729,3.729,3.7291,3.7369,3.7371,0,0,0,0,0,0,3.7377,3.7373,3.7373,3.7372,3.7358,3.7343,3.734,3.7342,3.7323,3.7319,3.7319,3.7315,3.7302,3.7301,3.7301,3.7342,3.729,3.7291,3.7291,3.7368,3.737,3.7371,0,0,0,0,0,0,3.7377,3.7377,3.7374,3.7371,3.737,3.7345,3.7348,3.7342,3.7342,3.732,3.7315,3.7324,3.73,3.73,3.7318,3.7341,3.7291,3.7292,3.7366,3.7368,3.737,3.7425,0,0,0,0,0,0,3.7377,3.7378,3.7391,3.7372,3.737,3.7391,3.7349,3.7343,3.7343,3.7338,3.7323,3.7319,3.7299,3.7317,3.7318,3.7341,3.7292,3.7363,3.7367,3.737,3.7421,3.7429,3.7436,0,0,0,0,0,3.7377,3.7407,3.7391,3.7392,3.7386,3.7392,3.7391,3.7367,3.7345,3.7359,3.7344,3.732,3.7338,3.7319,3.732,3.7343,3.7362,3.7366,3.7369,3.7418,3.7428,3.7436,0,0,0,0,0,0,3.743,3.7404,3.7387,3.7411,3.7404,3.7384,3.74,3.7378,3.7378,3.7373,3.7343,3.734,3.7363,3.7354,3.7334,3.7377,3.7346,3.735,3.7382,3.7391,3.7399,3.7401,3.7293,0,0,0,0,0,3.7444,3.7451,3.7428,3.7452,3.7449,3.7425,3.7427,3.7409,3.7401,3.7398,3.7385,3.7378,3.7383,3.7386,3.7389,3.7419,3.7416,3.7435,3.7443,3.7449,3.7454,3.747,3.7479,3.7384,3.7384,3.7384,0,0,3.7474,3.7461,3.7467,3.7462,3.7455,3.7463,3.7423,3.7434,3.744,3.74,3.7416,3.7406,3.7397,3.7422,3.7432,3.7416,3.7479,3.7454,3.7459,3.746,3.7475,3.7484,3.7492,3.7386,3.7386,3.7385,0,0,3.7534,3.7524,3.7543,3.7536,3.7525,3.7508,3.7513,3.7496,3.7488,3.7503,3.7473,3.748,3.7488,3.7483,3.7482,3.7539,3.7517,3.754,3.758,3.7597,3.7604,3.7611,3.7633,3.7641,3.7545,3.7545,3.7545,0,3.7573,3.7584,3.7556,3.7568,3.7567,3.753,3.755,3.7545,3.7536,3.7536,3.7518,3.7527,3.7518,3.7541,3.7555,3.7555,3.756,3.7543,3.7605,3.7611,3.7617,3.7638,3.7646,3.7548,3.7548,3.7547,3.7547,0,3.7633,3.7641,3.7658,3.7649,3.765,3.7666,3.7641,3.7646,3.7627,3.7613,3.763,3.7618,3.7618,3.7621,3.7604,3.7643,3.7633,3.761,3.7578,3.763,3.7649,3.7656,3.7552,3.7551,3.755,3.755,0,0,3.7726,3.7701,3.7708,3.7704,3.7689,3.7695,3.771,3.7709,3.7714,3.7708,3.7721,3.7728,3.7707,3.7705,3.7686,3.77,3.7748,3.7676,3.7675,3.7691,3.7792,3.7811,3.782,3.7732,3.7734,3.7735,3.7793,0,3.7783,3.7807,3.7782,3.781,3.7818,3.7783,3.7795,3.7788,3.7775,3.778,3.7766,3.7772,3.7742,3.7741,3.7754,3.774,3.7768,3.7735,3.7745,3.7746,3.7751,3.783,3.7849,3.7905,3.78,3.7802,3.7802,0,3.7853,3.7851,3.7881,3.7864,3.7866,3.7878,3.7876,3.788,3.7871,3.7861,3.7859,3.7836,3.785,3.7817,3.7837,3.7815,3.7817,3.7811,3.7812,3.7814,3.7779,3.7835,3.7922,3.7931,3.7813,3.7813,3.7812,0,3.7921,3.7924,3.7943,3.794,3.7921,3.793,3.7922,3.7911,3.7913,3.7911,3.7911,3.7911,3.7912,3.7912,3.789,3.7868,3.7913,3.7878,3.7906,3.7907,3.7919,3.7919,3.8009,3.7917,3.7917,3.7917,3.7917,0,3.7988,3.8008,3.7973,3.7985,3.8006,3.7977,3.7999,3.7988,3.7978,3.7988,3.7956,3.7966,3.7935,3.7942,3.7924,3.7944,3.7944,3.7937,3.7932,3.7941,3.7942,3.7943,3.794,3.7919,3.7919,3.7918,3.7918,0,3.8068,3.8045,3.8063,3.8042,3.8038,3.8055,3.8037,3.8048,3.8032,3.8044,3.8045,3.8022,3.8028,3.8005,3.8007,3.7996,3.8025,3.8013,3.8028,3.8026,3.8055,3.8053,3.8151,3.8163,3.8062,3.8063,3.8064,0,3.8113,3.8128,3.8109,3.8112,3.8106,3.8113,3.8114,3.8085,3.8088,3.8078,3.809,3.8093,3.8095,3.8106,3.809,3.8091,3.8081,3.8115,3.8081,3.8089,3.8083,3.8083,3.8085,3.8123,3.8124,3.8125,3.8126,0,3.8197,3.8185,3.8187,3.8186,3.8188,3.8185,3.8181,3.8186,3.8155,3.816,3.8165,3.8166,3.8168,3.8173,3.8171,3.8164,3.8141,3.8136,3.8143,3.8153,3.8161,3.8159,3.805,3.8134,3.8134,3.8133,3.8132,3.8132,3.8262,3.8274,3.8262,3.8266,3.8259,3.8256,3.8265,3.825,3.8254,3.8253,3.8236,3.8245,3.8236,3.8231,3.8226,3.8234,3.8218,3.8227,3.823,3.8233,3.8239,3.8159,3.8233,3.8233,3.8232,3.8232,3.8232,0,3.8346,3.8337,3.834,3.8335,3.8338,3.8314,3.8308,3.8312,3.8321,3.8313,3.8315,3.8322,3.8326,3.8309,3.8311,3.832,3.8309,3.8322,3.8322,3.8321,3.8252,3.8247,3.833,3.833,3.833,3.833,3.833,3.833,3.839,3.8409,3.8395,3.841,3.8401,3.8409,3.8408,3.8405,3.8399,3.8408,3.841,3.8399,3.8388,3.8389,3.8392,3.8387,3.839,3.8406,3.8398,3.8335,3.8325,3.8316,3.8311,3.8407,3.8407,3.8466,3.8466,3.8467]}]]